TimeMDT,TemperatureF,Dew PointF,Humidity,Sea Level PressureIn,VisibilityMPH,Wind Direction,Wind SpeedMPH,Gust SpeedMPH,PrecipitationIn,Events,Conditions,WindDirDegrees,DateUTC
12:53 AM,41.0,30.9,67,30.17,10.0,SW,6.9,-,N/A,,Clear,220,2012-10-15 06:53:00
1:53 AM,39.9,32.0,73,30.14,10.0,SW,8.1,-,N/A,,Clear,230,2012-10-15 07:53:00
2:53 AM,39.0,32.0,76,30.13,10.0,SW,5.8,-,N/A,,Clear,220,2012-10-15 08:53:00
3:53 AM,39.0,32.0,76,30.11,10.0,SSW,5.8,-,N/A,,Clear,200,2012-10-15 09:53:00
4:53 AM,37.0,30.9,79,30.10,10.0,South,9.2,-,N/A,,Clear,190,2012-10-15 10:53:00
5:53 AM,37.0,30.9,79,30.09,10.0,SW,10.4,-,N/A,,Clear,220,2012-10-15 11:53:00
6:53 AM,36.0,30.0,79,30.11,10.0,WSW,12.7,-,N/A,,Clear,240,2012-10-15 12:53:00
7:53 AM,37.0,30.0,76,30.14,10.0,WSW,11.5,-,N/A,,Clear,240,2012-10-15 13:53:00
9:53 AM,44.1,30.9,60,30.14,10.0,SW,13.8,-,N/A,,Clear,230,2012-10-15 15:53:00
10:53 AM,54.0,32.0,43,30.09,10.0,SW,13.8,-,N/A,,Clear,220,2012-10-15 16:53:00
11:53 AM,55.9,28.9,36,30.06,10.0,WSW,19.6,-,N/A,,Clear,240,2012-10-15 17:53:00
12:53 PM,57.9,-9999,N/A,30.03,10.0,SW,17.3,-,N/A,,Clear,230,2012-10-15 18:53:00
1:53 PM,60.1,27.0,28,30.01,10.0,North,-9999.0,-,N/A,,Clear,0,2012-10-15 19:53:00
2:53 PM,61.0,28.0,29,30.00,10.0,West,24.2,32.2,N/A,,Clear,270,2012-10-15 20:53:00
3:53 PM,62.1,30.0,30,29.98,10.0,WSW,19.6,29.9,N/A,,Clear,250,2012-10-15 21:53:00
4:53 PM,61.0,28.0,29,30.02,10.0,WSW,17.3,23.0,N/A,,Scattered Clouds,250,2012-10-15 22:53:00
5:53 PM,57.0,28.9,34,30.03,10.0,West,15.0,25.3,N/A,,Clear,270,2012-10-15 23:53:00
6:53 PM,52.0,30.0,43,30.05,10.0,WSW,12.7,-,N/A,,Partly Cloudy,250,2012-10-16 00:53:00
7:53 PM,48.0,30.0,50,30.05,10.0,SW,10.4,-,N/A,,Clear,230,2012-10-16 01:53:00
8:53 PM,46.0,30.0,54,30.05,10.0,SW,9.2,-,N/A,,Clear,230,2012-10-16 02:53:00
9:53 PM,46.9,30.0,52,30.04,10.0,WSW,13.8,-,N/A,,Clear,250,2012-10-16 03:53:00
10:53 PM,43.0,28.9,58,30.01,10.0,WSW,8.1,-,N/A,,Clear,240,2012-10-16 04:53:00
11:53 PM,42.1,28.9,60,29.99,10.0,WSW,8.1,-,N/A,,Clear,240,2012-10-16 05:53:00